Theta_e
311 315 318 321 322 324 325 325 325 326 323 320 320 319 319 322 323 321 320 321 325 329 327 326 334 346 352 354 355 357 356 361 364 360 360 357 352 353 352 351 349 346 344 344 346 347 346 344 344 345 345 344 344 344 343 341 336 332 332 334 334 331 320 316 318 319 323 326 329 334 338 341 340 342 344 344 344 344 345 345 345 344 344 344 343 343 340 336 332 331 330 331 334 338 339 336 333
311 318 322 323 323 323 325 326 325 322 319 316 318 320 321 323 323 320 321 323 329 331 328 328 339 350 351 352 353 358 358 355 356 358 356 352 352 352 350 350 349 347 344 344 347 347 347 346 344 345 345 345 345 344 344 340 335 333 333 335 334 328 319 318 319 320 327 330 332 337 340 342 341 343 344 344 344 344 345 345 345 344 344 343 343 340 332 324 323 325 325 325 326 329 335 336 334
309 314 319 323 323 322 323 323 323 319 317 315 315 320 322 321 322 322 323 326 333 329 328 336 343 347 349 354 353 358 360 354 352 354 353 352 352 350 349 349 348 346 344 345 347 346 347 346 344 345 345 345 345 345 343 338 335 334 335 336 333 327 320 320 320 322 330 333 335 338 340 342 342 343 344 344 344 345 345 345 345 344 344 343 341 334 325 324 326 330 331 330 327 323 327 334 334
309 310 314 319 321 321 323 323 324 320 317 315 314 320 321 320 323 324 326 329 332 325 330 345 350 347 348 352 352 356 356 352 353 354 354 352 350 349 348 348 347 346 346 347 346 345 346 347 346 345 345 345 345 344 340 336 335 335 336 335 333 327 321 324 324 327 334 334 336 338 340 342 342 343 344 344 344 345 345 345 345 344 344 342 338 332 331 333 334 334 334 333 330 322 318 323 326
309 309 311 315 320 322 323 323 321 318 317 317 315 319 320 321 324 324 325 327 328 324 328 347 355 351 350 351 351 356 355 354 355 354 354 350 349 348 347 346 345 346 348 347 345 344 347 348 346 345 346 346 345 343 338 336 336 336 337 335 333 326 322 328 328 332 336 334 337 338 340 341 342 343 343 344 344 345 344 344 344 343 343 340 337 336 338 338 338 336 334 333 328 320 313 313 316
312 312 312 315 320 320 321 321 319 316 317 319 316 319 319 320 324 324 325 324 326 324 330 349 354 353 355 353 353 354 355 357 356 354 352 350 348 347 347 346 344 346 346 346 344 344 346 347 346 346 346 346 344 341 338 337 337 337 337 335 332 324 325 332 331 335 337 335 338 339 340 341 341 342 343 344 344 344 344 344 343 343 341 340 339 338 339 338 338 337 334 332 324 315 311 311 316
316 317 316 318 319 317 318 319 318 318 319 320 317 318 318 320 324 323 324 322 324 323 335 352 350 353 356 353 356 355 353 357 356 353 351 349 348 347 347 345 345 346 346 346 344 344 346 345 346 345 345 345 343 340 339 338 338 338 337 335 329 324 327 334 334 336 337 337 340 340 340 340 339 341 343 343 344 344 343 343 343 342 341 340 339 337 336 335 336 336 333 329 319 314 313 316 323
317 317 318 320 320 317 317 316 316 319 319 321 319 319 320 322 324 322 324 321 324 323 333 349 350 357 358 354 359 357 354 355 354 352 350 348 348 348 346 345 346 346 346 346 342 343 345 345 345 345 345 344 342 340 339 338 339 338 337 334 327 326 332 336 337 337 337 338 340 340 341 340 339 339 342 344 344 343 343 343 342 341 340 339 336 333 332 332 334 334 332 323 316 317 319 322 327
316 318 317 318 321 319 315 315 314 317 317 319 318 320 325 323 323 321 322 320 325 323 326 344 352 359 358 356 358 356 354 355 353 352 349 349 349 347 346 345 346 347 347 347 342 341 345 345 345 345 344 343 341 340 339 339 338 337 336 332 327 330 336 338 338 338 337 338 339 340 341 340 338 338 342 344 343 343 343 342 342 341 339 336 333 330 330 331 332 333 331 321 315 322 326 328 330
316 317 317 318 321 319 316 316 315 317 316 318 317 319 323 322 323 321 322 321 323 323 331 346 352 356 356 356 358 356 355 354 353 352 351 350 349 347 347 346 346 347 346 346 341 339 344 344 344 343 342 342 341 340 340 339 338 337 334 331 328 333 337 339 339 339 338 339 339 340 340 339 338 339 342 344 343 343 343 342 341 339 336 333 330 329 330 331 331 332 329 319 315 324 330 331 332
317 315 316 317 317 317 317 317 316 318 318 318 319 318 321 321 322 321 321 320 322 325 336 351 355 354 355 356 357 356 355 355 353 353 351 351 350 348 347 347 346 346 346 346 341 339 344 343 342 342 341 341 341 340 339 338 337 336 333 331 330 333 337 339 340 339 339 339 339 339 339 338 338 340 343 343 343 343 342 341 340 337 334 331 329 329 330 331 331 330 326 317 315 323 330 332 332
316 315 316 314 315 316 316 316 315 319 318 319 320 320 321 321 321 320 321 320 323 322 330 351 355 353 355 357 356 356 356 355 354 353 352 351 351 350 348 348 347 347 347 345 339 339 342 342 342 342 341 340 338 337 335 336 335 334 332 330 330 333 336 338 339 340 339 339 339 339 338 339 340 342 343 343 343 342 341 340 339 335 331 329 330 329 330 331 331 329 324 316 314 322 330 332 332
314 316 315 315 316 315 314 314 316 320 319 320 320 319 320 321 321 320 321 320 321 323 333 349 352 353 356 357 357 356 357 356 354 353 352 352 351 351 349 349 348 347 347 344 337 337 342 342 342 342 340 338 336 334 333 334 333 332 329 328 329 332 336 339 339 340 339 338 339 340 339 339 341 343 343 342 342 342 341 340 338 333 330 330 330 330 331 331 331 329 324 316 314 322 331 332 331
314 315 315 317 318 316 315 313 314 316 314 319 319 319 320 320 321 320 321 321 329 338 346 352 349 354 357 358 360 359 358 356 355 354 353 353 352 351 350 349 348 347 345 341 334 336 341 341 341 341 340 338 335 333 332 332 332 330 328 329 332 334 338 339 340 340 338 338 339 341 340 340 341 342 342 342 341 341 341 339 338 333 329 330 330 331 331 332 331 330 325 317 313 321 330 331 332
314 315 315 316 317 316 316 315 316 313 313 319 319 320 321 320 321 321 319 325 341 345 346 349 347 355 357 359 362 358 357 356 355 355 354 353 351 350 349 348 347 345 342 337 332 337 341 341 341 340 339 336 333 332 332 333 331 328 328 333 337 338 338 339 340 339 338 338 339 341 341 340 340 341 342 341 341 341 340 339 338 333 329 330 331 332 331 332 331 330 326 318 313 318 327 332 333
315 314 315 315 315 314 315 317 317 314 316 320 320 321 320 320 321 321 320 333 348 349 348 352 351 353 353 355 358 356 356 356 356 355 354 353 351 350 348 347 345 344 340 336 338 340 342 342 340 338 336 333 330 329 332 335 332 328 331 335 337 338 338 338 339 340 340 339 338 339 340 340 340 340 340 340 340 340 340 339 338 333 329 329 331 332 332 332 331 331 327 320 315 315 324 332 333
316 314 315 315 315 314 316 318 317 316 317 321 321 321 320 319 322 321 328 344 352 353 354 355 354 354 352 354 356 355 356 356 356 355 354 352 350 349 348 347 346 344 341 340 342 342 342 342 339 337 336 331 329 330 334 336 333 332 335 336 336 336 338 339 339 339 340 340 339 339 339 339 339 339 339 338 338 339 338 338 338 334 329 329 330 332 333 332 332 331 328 322 316 316 324 332 333
316 316 316 315 316 316 316 318 318 319 319 321 320 321 322 320 323 320 332 350 354 354 355 354 353 354 353 355 355 355 356 356 356 355 354 352 350 348 347 347 347 346 345 344 344 343 343 342 339 339 338 334 334 334 335 335 333 333 335 337 336 334 336 338 339 339 340 339 339 339 338 338 337 337 337 336 337 338 337 337 337 334 329 329 329 331 332 333 333 331 329 324 318 320 329 333 334
316 317 317 315 317 317 318 318 319 321 321 321 321 322 322 320 324 320 331 349 354 355 357 355 354 355 354 354 355 355 356 356 355 354 353 353 351 348 347 347 346 346 347 347 345 344 344 342 341 341 339 338 339 338 336 333 334 335 335 336 335 334 334 335 337 337 337 335 335 336 336 337 336 336 336 335 337 338 337 336 336 334 330 329 328 329 332 332 333 332 331 327 321 322 330 333 334
316 316 317 316 317 316 317 317 318 321 321 321 321 321 322 323 325 321 328 345 353 357 357 356 357 356 354 354 354 355 356 355 355 354 353 352 351 349 346 346 346 346 346 347 347 345 345 343 342 342 340 341 341 340 338 332 332 335 336 334 333 334 334 334 334 334 335 332 330 333 335 337 338 339 337 336 339 338 335 335 335 335 331 330 329 328 330 332 333 333 332 329 324 322 328 333 335
316 316 316 316 316 316 316 317 319 321 322 321 320 320 322 323 326 325 324 335 347 355 354 356 357 355 355 354 354 355 354 355 354 354 354 353 352 349 346 346 346 345 345 347 347 346 346 344 344 342 340 342 342 342 339 332 331 334 335 334 333 334 334 335 336 336 338 335 332 333 336 338 339 341 339 337 341 339 335 334 333 334 332 330 330 328 328 329 331 333 332 331 328 326 327 332 334
316 316 315 316 315 316 316 317 318 320 322 322 320 320 320 321 326 326 324 330 342 350 352 353 354 353 354 353 354 354 354 355 354 353 354 353 350 347 345 345 345 344 345 346 346 346 346 345 345 342 341 343 343 344 340 333 335 337 336 336 335 336 335 335 338 339 339 338 335 333 336 340 339 341 339 337 341 340 338 336 333 333 332 331 331 330 328 327 329 332 333 331 331 332 333 334 333
316 316 316 316 315 316 316 317 318 320 321 321 320 320 319 321 322 322 334 341 342 347 351 352 351 351 351 352 353 355 356 357 355 353 353 352 350 345 343 345 345 343 343 345 345 346 346 345 345 342 341 343 343 344 339 334 338 340 339 339 337 337 336 335 338 339 339 339 336 334 336 340 339 340 340 339 341 340 339 338 334 333 333 332 331 331 330 328 327 329 332 332 331 333 336 337 337
316 316 316 316 317 317 317 317 319 319 320 320 319 319 319 321 320 323 342 348 345 348 351 350 350 350 350 351 353 355 356 356 354 352 352 352 350 346 344 345 346 344 343 345 346 346 345 344 344 342 342 343 343 343 340 335 339 341 340 340 338 336 336 336 338 339 339 338 336 335 335 337 339 339 340 341 341 340 339 339 335 333 333 332 331 331 331 330 328 327 329 333 334 333 334 335 337
315 316 316 317 317 317 318 318 319 319 319 320 318 319 318 321 318 323 344 350 348 350 350 349 349 350 351 352 354 356 357 356 352 351 352 352 350 347 346 346 346 344 343 344 345 345 345 344 344 343 343 343 342 342 341 338 339 340 340 340 339 338 337 338 339 339 339 338 337 337 335 336 337 338 339 340 340 339 339 339 337 335 334 334 333 333 332 331 330 328 327 331 336 336 334 333 336
314 316 316 316 317 316 317 318 319 319 319 319 318 318 318 322 318 321 343 351 348 350 349 349 350 351 351 353 356 357 359 358 352 350 352 351 349 347 345 345 345 344 343 345 345 345 345 344 344 344 343 343 342 341 341 340 339 340 339 339 339 339 338 338 339 339 339 338 338 338 337 336 335 336 338 339 340 339 339 338 337 336 336 336 336 336 335 331 330 330 329 329 334 337 336 335 336
314 316 316 316 316 316 317 317 318 318 319 319 317 318 318 321 317 321 340 346 344 348 349 349 350 351 352 353 356 356 358 357 351 351 351 350 349 347 347 346 345 345 345 346 346 345 345 344 344 344 343 343 342 341 341 341 340 340 340 339 340 339 339 339 339 339 339 339 339 339 338 337 336 336 337 339 339 339 339 338 337 336 336 336 336 337 336 332 330 331 330 329 333 337 336 336 337
314 315 315 315 316 316 316 317 318 317 318 319 318 319 318 320 316 319 337 343 342 347 348 349 349 351 353 353 354 355 354 352 350 351 350 349 350 348 348 348 347 346 346 347 347 346 345 343 344 344 343 343 342 341 341 341 341 340 341 340 340 340 340 340 340 340 339 339 339 339 338 338 338 338 338 339 339 339 339 339 337 336 335 335 335 335 335 333 331 331 331 330 331 334 334 335 336
314 314 313 314 316 316 316 316 318 317 317 318 318 317 316 318 317 318 334 341 341 345 347 347 349 350 351 352 353 353 351 349 349 350 349 349 349 349 348 347 347 347 347 347 346 346 345 344 344 344 343 342 342 342 341 341 341 341 341 340 340 341 340 340 340 340 340 339 339 339 339 339 339 339 339 339 339 339 339 338 337 336 335 334 334 333 334 333 332 332 331 331 332 333 333 334 335
314 314 312 313 314 316 317 316 317 316 317 319 317 315 316 317 317 318 329 339 341 342 345 344 347 349 348 350 351 352 351 349 349 349 349 349 348 348 348 347 347 347 347 346 346 346 345 345 344 343 343 342 342 342 342 342 342 342 341 341 341 341 340 339 339 339 339 339 338 338 338 338 339 339 339 339 339 339 338 338 337 337 336 335 334 333 333 332 332 333 332 333 334 334 334 335 334
314 313 312 313 313 314 317 317 316 316 316 319 316 314 316 318 318 318 323 334 338 338 341 343 345 345 346 349 350 351 351 348 348 349 348 348 347 348 347 347 347 346 346 346 346 346 345 345 344 344 343 342 343 342 342 343 342 343 342 341 341 340 340 339 338 338 337 337 337 337 336 337 338 338 338 338 338 339 338 337 336 337 337 337 335 334 334 334 333 333 333 334 334 334 335 335 334
313 312 311 312 313 314 316 317 316 316 316 317 316 313 316 317 317 318 319 328 334 334 338 342 343 343 345 348 349 350 350 347 348 349 348 347 347 347 347 346 346 346 346 346 346 346 345 345 345 345 343 343 344 343 343 343 343 343 342 342 341 340 339 338 338 337 337 337 337 336 336 337 336 336 336 337 338 338 338 338 337 337 337 337 337 336 335 335 335 334 334 334 334 334 334 335 334
312 312 311 312 312 312 314 316 316 316 316 317 316 315 317 317 317 317 318 324 329 332 337 340 341 342 344 346 345 347 348 347 348 348 348 349 347 347 347 347 347 346 346 346 346 346 346 346 345 344 344 344 344 344 344 343 342 342 343 342 341 340 339 337 337 337 337 337 337 336 336 336 335 335 335 336 337 337 337 338 337 337 338 338 337 337 336 336 336 336 335 334 334 335 334 334 334
313 313 312 313 312 312 312 314 316 315 316 316 316 317 318 318 318 317 318 321 324 330 337 339 338 340 342 343 342 344 346 348 349 348 349 349 348 347 347 347 347 347 346 346 345 345 345 345 345 344 343 344 344 344 344 343 341 342 342 342 341 341 339 338 337 337 337 336 336 336 336 335 334 335 335 336 336 335 336 337 337 337 337 337 337 337 336 336 336 336 336 334 333 334 333 332 332
314 314 312 312 312 312 312 312 315 315 316 316 317 318 317 318 318 317 318 320 321 326 334 337 336 340 342 340 340 341 344 348 348 348 348 348 348 348 347 347 347 347 346 346 345 345 345 344 344 343 343 344 343 343 343 342 341 340 342 342 341 341 340 339 338 337 337 336 336 336 336 335 334 334 335 336 336 335 334 334 335 336 336 336 336 336 336 336 336 336 336 335 334 334 333 332 332
314 315 313 311 311 311 312 313 315 316 315 316 317 317 317 318 317 318 319 321 322 323 330 336 337 340 341 339 340 341 344 347 347 347 348 348 348 347 346 346 346 346 346 346 345 345 344 344 344 344 343 343 343 343 343 343 342 340 341 342 341 341 340 340 338 337 336 336 337 337 336 335 333 334 335 335 336 335 335 335 335 335 335 336 336 336 336 336 337 337 337 337 334 333 332 332 332
313 314 313 312 310 311 313 315 315 316 316 315 317 317 317 318 317 319 321 321 324 322 327 335 338 338 339 340 341 343 346 348 347 347 348 348 347 347 346 345 345 345 345 345 344 343 343 344 344 343 343 343 343 342 343 343 342 341 341 341 341 340 340 340 339 338 337 337 337 337 336 335 334 334 334 335 335 335 336 336 336 336 335 335 336 336 335 336 337 337 337 336 334 332 332 332 333
312 312 312 311 311 312 314 315 315 316 317 315 316 317 317 319 318 320 322 321 323 323 326 335 337 337 340 342 342 345 348 348 348 348 348 348 348 347 346 345 344 344 345 345 344 342 342 342 343 343 343 342 342 342 342 342 342 341 341 341 340 340 340 339 339 338 338 338 338 338 337 336 335 334 334 334 334 335 336 336 336 336 335 336 336 336 335 335 336 336 335 335 334 333 334 334 333
313 311 311 311 313 313 313 316 316 316 317 316 316 317 317 320 320 320 322 322 324 325 329 335 338 339 341 342 344 347 348 348 350 350 348 348 348 348 346 346 344 344 345 345 344 343 342 342 342 342 342 342 342 342 341 341 341 340 340 340 340 340 340 339 339 338 338 338 338 338 337 337 336 335 335 334 333 334 335 336 336 335 335 335 336 336 336 335 335 335 334 335 335 335 334 334 334
314 313 311 311 312 312 312 314 316 316 319 318 317 317 318 321 321 321 322 322 324 324 328 335 339 340 340 342 344 347 348 348 350 350 349 347 347 347 345 345 345 344 345 345 344 344 343 343 342 342 342 341 341 341 340 340 340 340 340 340 339 339 340 339 339 338 338 338 338 338 338 337 336 336 336 334 333 333 334 335 335 335 335 335 335 336 336 335 334 335 335 335 335 335 334 334 335
313 314 312 312 312 313 312 315 316 315 318 321 317 314 316 321 321 321 322 322 324 320 327 337 340 340 339 342 345 346 346 347 349 349 348 347 345 345 345 344 345 344 345 344 344 344 343 343 342 341 341 341 340 339 339 339 339 338 338 338 338 338 338 339 339 339 338 338 338 338 338 338 337 337 337 336 335 334 334 334 334 334 335 335 335 335 335 335 335 334 335 335 335 335 335 334 334
312 314 314 313 314 314 314 316 316 313 314 318 316 311 314 320 321 322 322 322 323 320 329 339 341 340 340 344 346 346 346 346 347 348 347 346 345 345 345 345 345 345 345 345 344 344 343 343 341 340 340 341 341 339 338 338 337 337 338 338 338 338 337 338 339 338 339 338 338 338 338 338 337 337 337 337 336 335 335 335 335 335 335 335 335 335 335 334 335 335 334 335 335 335 335 333 332
312 314 315 315 315 315 315 315 314 312 314 318 317 316 316 317 317 323 325 323 323 325 333 340 341 341 342 344 345 346 346 346 346 347 346 345 344 344 344 344 344 344 344 344 343 343 342 342 341 340 340 340 340 338 337 337 336 337 337 338 338 339 339 339 339 338 339 339 339 339 339 338 338 338 337 337 337 337 336 335 334 334 335 335 334 334 335 334 335 335 335 335 335 335 335 332 331
312 315 316 316 316 315 315 315 314 315 318 317 316 320 318 314 316 325 325 324 327 331 337 342 342 342 343 344 344 345 346 346 346 346 346 344 343 343 343 343 343 343 343 342 342 341 341 340 340 339 339 339 339 338 338 337 337 337 337 337 338 338 338 339 339 339 339 339 338 339 339 339 339 338 338 338 337 335 336 335 333 333 334 334 334 333 334 334 335 335 335 335 335 335 335 333 332
314 316 316 316 316 316 317 316 315 318 317 313 313 315 314 313 320 325 322 324 328 332 338 343 344 343 344 344 344 345 345 344 343 343 343 341 340 341 341 341 341 341 341 340 340 339 339 339 339 338 338 338 339 339 339 338 337 336 337 337 337 338 338 338 338 339 339 339 339 339 339 339 339 338 337 336 335 334 334 335 334 334 334 334 334 333 333 334 335 335 335 335 335 334 334 334 333
315 315 315 317 316 319 319 315 314 316 316 314 313 312 310 312 320 322 320 324 327 330 338 343 344 342 342 342 343 342 341 341 340 339 339 338 338 339 339 339 339 339 339 338 338 337 337 338 338 338 338 339 339 339 339 338 337 337 337 337 336 336 337 337 338 338 338 338 338 338 338 339 338 336 334 334 334 333 333 334 334 334 335 335 335 334 333 334 334 334 334 335 334 334 334 333 333
315 314 314 314 317 319 318 318 318 314 318 319 313 312 311 312 318 320 320 323 327 337 341 342 342 340 339 339 340 340 339 338 338 337 337 337 337 337 337 337 337 338 338 337 337 336 337 338 338 339 339 339 339 339 339 339 338 338 338 338 337 337 337 338 338 337 337 336 336 336 336 336 337 336 334 334 334 332 332 333 333 333 333 334 335 335 335 334 333 333 333 335 334 332 332 333 333
315 315 313 313 315 315 311 315 316 316 324 322 312 313 311 310 320 329 331 327 329 339 342 342 341 340 338 337 337 339 338 337 336 336 336 336 336 336 336 337 337 337 337 337 338 337 337 337 337 337 338 338 338 338 338 338 338 339 339 339 339 338 338 338 338 336 336 336 335 335 334 335 335 335 335 336 334 331 331 332 332 333 332 333 334 335 335 334 334 332 331 333 334 331 331 333 332
314 314 314 314 314 313 311 314 317 320 325 319 312 315 310 314 329 339 345 337 332 338 341 338 339 339 337 336 337 338 338 336 335 335 335 335 336 336 336 336 336 336 336 336 336 336 335 334 334 334 334 334 334 334 335 335 336 337 338 338 337 337 337 336 336 335 335 336 335 335 335 335 335 335 335 335 334 332 332 332 332 332 332 332 333 335 335 334 334 334 333 332 332 331 331 332 332
312 311 314 316 315 313 313 317 319 319 320 316 313 312 313 329 342 340 342 340 335 338 338 337 338 338 336 336 336 337 337 335 334 334 334 334 334 334 334 334 333 333 333 333 333 333 332 332 332 331 331 332 332 332 333 333 333 334 334 335 335 335 335 334 334 334 334 335 335 335 335 335 336 335 335 335 334 334 333 333 331 330 331 331 331 333 334 334 334 334 335 333 332 332 331 331 332
312 312 315 316 316 316 316 317 318 319 319 315 313 315 325 342 343 335 338 338 337 338 337 337 338 336 336 335 334 335 334 333 333 332 332 332 331 331 332 331 331 331 330 330 331 330 330 330 330 330 330 330 330 331 331 332 332 332 333 333 333 333 333 333 333 333 333 333 334 334 334 335 335 335 335 334 334 333 333 333 331 329 329 330 330 332 333 333 334 334 334 334 334 333 331 330 331
313 314 314 314 317 320 322 321 319 320 318 315 323 333 338 341 337 334 337 337 336 337 336 336 336 334 335 334 333 333 331 331 331 331 331 330 330 330 329 329 328 328 328 328 329 329 328 328 328 329 329 328 328 329 330 331 331 332 332 332 332 332 333 333 332 333 333 333 333 333 334 334 334 334 333 333 332 332 331 331 331 330 330 329 329 330 331 332 334 334 334 334 334 334 332 331 332
315 314 313 314 315 320 324 321 316 319 318 318 334 344 340 339 338 335 336 336 336 336 335 335 334 333 333 332 332 331 330 330 329 330 330 329 329 328 328 328 327 327 327 327 328 327 327 327 327 328 328 327 327 327 329 330 330 330 330 331 331 331 332 332 332 332 332 332 332 332 333 333 332 332 331 330 330 330 330 330 330 330 329 329 329 330 330 330 332 333 334 334 333 333 333 332 333
314 312 313 314 314 317 324 322 314 317 321 322 339 348 340 341 342 336 335 337 336 335 334 333 332 332 332 331 331 330 329 329 328 328 328 328 328 327 327 327 326 326 326 326 327 326 326 326 326 327 327 326 326 327 327 328 329 329 329 329 329 330 330 330 330 330 330 330 331 331 332 331 331 330 329 329 329 330 330 329 329 329 328 328 328 329 330 329 330 331 333 334 333 334 333 333 333
314 314 313 315 317 314 318 323 317 317 321 320 334 345 342 341 340 335 337 337 335 334 333 332 332 331 331 331 330 329 328 327 328 328 328 328 327 326 326 326 325 326 326 326 326 326 326 326 325 326 326 325 325 326 326 326 327 327 327 328 328 329 329 329 329 329 328 329 330 331 331 331 331 330 329 329 329 329 329 329 328 328 328 329 329 330 331 331 330 330 333 334 332 332 332 331 332
315 315 312 314 319 315 315 321 319 319 321 319 331 342 342 339 336 334 337 336 334 334 332 331 331 330 330 330 329 328 328 328 328 328 328 327 326 326 325 325 325 325 325 325 325 325 325 325 324 325 324 324 325 325 325 325 325 325 326 326 327 327 327 327 327 328 328 329 330 329 330 330 330 330 329 329 328 329 329 328 328 328 328 329 330 329 330 332 331 331 332 333 330 329 329 329 330
313 312 313 311 313 316 317 319 316 318 322 323 332 341 341 339 335 333 336 336 333 333 332 331 330 329 329 329 328 328 328 328 327 327 327 326 325 326 325 325 325 325 325 324 324 323 323 324 324 323 323 323 323 324 324 324 324 324 324 325 325 324 325 325 326 326 327 328 329 329 329 329 329 329 329 329 329 329 329 329 329 328 328 329 329 329 329 331 332 331 332 332 329 328 329 329 329
313 312 315 313 313 315 314 317 314 313 321 323 328 341 343 338 336 333 335 335 332 331 330 329 329 329 329 328 328 327 327 327 327 326 327 325 325 325 325 324 325 325 324 323 323 323 322 322 322 322 322 323 323 323 323 323 323 323 323 323 323 324 325 325 326 327 327 328 329 329 329 329 329 329 329 329 329 329 329 330 329 328 328 328 329 329 329 331 332 332 332 331 330 329 329 330 329
Wind_Speed
7 6 5 7 8 8 7 2 1 2 2 3 4 3 5 9 11 9 13 14 4 2 3 7 9 10 11 11 14 13 10 5 1 3 3 7 22 30 28 28 27 26 26 24 22 21 19 18 16 16 16 16 15 15 15 15 15 14 13 11 10 10 11 12 14 17 20 19 20 20 18 16 18 18 18 18 17 17 16 16 15 15 15 15 14 14 13 13 13 13 12 12 12 11 11 13 16
7 8 8 10 11 4 3 2 1 3 2 4 4 4 9 10 11 13 14 8 1 2 4 9 13 16 17 13 11 13 12 9 7 7 8 21 27 26 28 27 25 25 26 24 23 21 20 18 16 16 16 16 15 15 16 16 16 14 13 11 10 10 11 13 15 18 20 19 20 20 18 16 17 18 17 17 17 17 16 15 15 15 15 14 13 12 12 13 13 12 12 12 12 11 11 13 14
8 10 9 8 8 3 2 1 2 3 3 5 4 6 10 10 10 9 5 2 1 2 6 11 14 12 15 14 11 10 7 7 11 9 10 22 19 20 29 26 23 23 25 24 22 21 21 18 17 17 16 16 16 16 17 17 16 14 12 10 10 10 11 13 15 20 20 19 19 20 18 16 16 16 17 17 17 16 16 15 15 15 14 14 12 12 12 11 11 11 11 11 11 11 11 13 13
9 9 9 5 2 2 1 1 3 3 4 5 4 8 8 5 3 2 3 5 1 2 4 9 11 7 15 17 10 9 8 6 10 8 7 17 20 25 30 24 23 24 24 22 21 22 20 19 17 16 16 16 16 17 18 18 16 13 11 10 9 9 11 14 17 20 19 18 19 19 17 15 15 15 16 16 16 16 16 15 15 14 14 13 12 12 11 10 10 10 10 10 10 11 11 12 12
9 9 9 5 1 1 1 2 3 4 5 5 4 9 7 3 3 4 2 4 2 3 4 8 7 6 14 12 5 6 8 7 9 11 12 20 29 30 27 24 24 25 23 19 19 21 20 19 17 16 16 16 17 18 18 17 15 13 11 10 9 9 12 14 18 20 17 18 20 18 16 14 14 15 15 15 16 15 15 15 14 13 13 12 11 11 10 10 9 9 8 9 10 11 12 14 15
8 8 9 6 3 2 1 3 4 5 7 6 6 9 8 6 2 6 5 4 4 4 8 9 10 9 10 8 7 5 9 10 9 12 18 26 31 28 25 25 25 26 22 18 17 20 20 18 18 17 16 17 18 18 18 16 14 12 11 10 9 10 12 14 19 19 17 19 18 16 15 14 14 14 14 14 15 15 14 14 13 12 12 11 10 9 9 9 8 7 7 8 10 11 15 18 19
6 5 4 3 2 2 1 4 4 5 7 9 10 10 9 6 3 3 5 4 4 5 10 10 13 14 8 5 7 9 13 16 12 15 24 30 30 27 25 26 26 26 21 17 16 19 20 18 18 17 17 18 18 18 17 15 13 12 10 10 10 11 13 16 19 19 17 18 16 15 14 13 13 13 13 13 14 14 14 13 12 11 11 10 9 8 8 8 7 6 6 8 11 13 18 21 21
8 4 1 2 1 2 3 4 5 6 8 11 11 10 6 2 2 2 4 3 2 2 9 11 15 15 8 8 7 10 19 21 20 24 30 30 27 26 26 27 27 25 20 16 15 19 20 19 18 17 18 18 18 17 16 15 12 11 11 10 11 12 15 17 18 18 18 17 15 15 14 13 13 12 11 12 13 13 13 11 10 9 9 9 8 7 7 8 7 6 6 9 12 16 20 21 20
8 5 1 1 2 3 3 4 6 7 10 13 13 11 7 4 3 3 4 4 2 2 6 10 15 14 9 14 11 8 17 23 27 28 28 26 24 25 27 29 27 25 21 16 16 20 21 19 19 18 18 17 17 16 15 14 11 12 11 11 13 14 15 16 17 18 18 17 15 15 14 12 12 11 10 12 13 12 12 10 9 8 8 8 8 7 7 7 7 7 7 9 13 17 19 20 18
4 5 2 2 3 4 4 5 6 8 12 13 15 14 7 4 3 5 4 5 1 2 9 14 16 15 12 13 9 7 15 23 27 26 26 25 24 27 29 29 26 24 22 17 17 22 21 20 19 18 18 17 17 16 14 12 11 12 11 12 14 15 16 17 18 18 17 16 15 14 13 12 11 10 11 12 12 12 10 9 8 7 7 7 6 6 7 7 7 8 8 9 12 16 18 18 17
2 3 3 2 3 4 5 5 7 8 11 11 14 11 6 4 3 4 3 1 3 4 13 16 13 15 14 9 6 12 22 24 24 25 25 24 24 28 30 28 24 22 22 18 18 22 22 20 19 18 17 17 16 14 13 12 12 12 11 13 15 15 17 19 19 18 17 15 15 14 12 11 11 11 12 12 11 10 9 8 8 7 6 6 5 6 6 6 7 8 8 9 11 14 17 17 15
3 3 2 2 3 4 5 6 8 9 10 10 12 8 7 7 6 3 4 4 3 5 9 12 10 11 12 6 5 13 22 22 23 26 25 25 27 29 29 27 24 21 20 18 20 23 22 21 19 17 17 15 14 13 13 13 12 11 11 13 16 16 18 20 19 18 16 15 14 13 12 11 11 12 12 12 11 9 8 8 8 7 6 5 5 6 5 6 7 8 8 8 10 14 16 16 15
4 4 2 3 4 4 6 7 7 8 7 9 7 4 5 7 6 3 3 3 3 4 6 14 14 10 10 5 5 10 14 19 24 26 26 26 28 29 27 24 22 20 19 18 21 23 21 21 18 17 16 15 14 13 13 13 12 11 12 14 15 16 18 20 19 17 16 16 14 12 12 12 12 12 11 11 10 9 8 8 8 7 6 5 5 6 5 6 6 7 7 8 9 14 16 15 14
4 3 3 3 4 4 6 6 6 7 7 7 2 5 5 5 6 4 2 2 5 4 9 13 16 15 10 6 6 5 9 19 25 26 26 27 28 29 26 23 20 19 19 19 21 22 20 19 18 17 16 15 15 14 14 13 12 12 12 14 14 15 17 19 18 17 17 16 14 12 13 12 12 12 11 10 9 8 7 8 8 7 6 5 6 6 6 5 6 7 7 7 8 13 16 14 13
5 2 3 3 4 4 5 6 7 7 6 4 1 4 5 3 7 5 1 3 7 6 11 8 7 12 11 10 7 7 13 23 26 28 28 28 29 29 26 23 20 18 20 21 21 21 20 18 18 18 17 16 15 14 15 14 12 12 13 13 13 14 16 18 18 17 16 15 13 12 13 12 11 11 10 9 8 8 7 8 7 8 7 6 7 6 6 5 5 6 7 7 7 12 15 13 13
5 2 2 3 4 5 5 6 6 6 6 3 2 3 5 1 5 4 1 8 7 5 9 4 3 5 13 12 13 17 21 26 28 30 31 30 30 28 27 25 22 19 19 20 20 19 19 18 18 17 16 15 15 14 14 14 12 12 13 13 13 14 15 18 18 16 15 14 14 13 13 12 11 10 9 8 6 5 6 7 8 9 9 8 8 7 6 5 5 6 6 6 7 10 13 14 13
4 3 3 4 4 5 6 4 5 4 3 2 3 1 3 0 2 3 6 15 12 10 12 8 8 6 11 15 24 28 27 29 31 31 30 28 27 25 26 25 23 21 19 19 18 18 18 18 18 17 15 14 13 13 14 13 12 13 13 13 14 14 15 17 17 16 14 13 13 13 13 11 10 8 7 6 5 5 6 7 8 10 10 9 8 8 6 5 5 6 6 7 7 10 14 16 13
4 3 4 5 5 7 7 5 5 1 1 2 2 2 2 2 4 3 8 16 14 14 13 13 15 12 15 24 31 30 29 31 30 29 26 23 22 21 21 20 21 21 21 20 18 18 18 17 18 17 15 13 13 13 14 12 13 14 14 14 13 14 15 16 16 15 14 12 12 13 13 11 9 8 6 6 6 6 6 7 8 11 11 10 9 8 7 6 5 5 6 7 8 12 16 16 13
4 3 4 5 6 8 7 8 7 3 3 5 5 3 1 4 8 4 8 14 14 15 11 14 18 14 17 23 27 28 28 28 26 26 23 20 20 19 17 17 20 21 21 20 20 20 18 18 20 18 15 13 13 14 14 13 14 14 13 13 13 13 14 14 14 14 13 11 11 12 14 12 10 8 6 6 7 6 5 7 9 12 13 11 9 8 8 6 5 5 6 7 9 14 16 15 14
5 3 4 6 7 9 10 12 8 3 4 6 8 4 3 2 5 4 8 13 13 14 11 12 16 15 15 15 19 25 25 22 22 23 20 20 21 21 19 19 21 21 21 20 21 21 20 20 21 19 17 15 15 14 14 14 14 14 13 13 13 13 13 13 12 13 11 10 9 12 15 14 12 10 6 6 9 8 5 7 10 12 14 12 10 9 8 6 5 5 6 7 9 14 15 14 13
4 5 7 7 7 9 11 13 7 2 6 5 7 6 6 5 2 2 5 8 8 11 14 16 17 18 18 15 15 19 20 18 18 19 19 19 20 21 22 23 23 22 23 21 21 22 21 22 22 20 19 18 17 15 15 15 15 14 14 14 14 14 13 13 13 13 13 10 9 12 16 16 14 12 9 8 10 10 7 7 9 13 15 14 11 9 9 7 6 5 6 8 9 13 14 13 11
4 6 10 10 9 8 11 14 9 1 6 3 4 6 6 6 2 3 3 2 6 9 13 19 19 18 18 15 14 16 16 14 14 16 17 19 21 21 22 23 21 20 22 21 22 22 20 21 21 20 20 19 18 16 16 17 17 16 15 14 15 15 14 15 15 16 15 14 12 14 15 15 13 11 10 11 12 12 10 8 8 12 15 15 13 10 9 9 7 6 7 9 10 11 12 12 9
5 6 8 10 10 9 12 12 7 2 5 3 1 4 6 6 4 4 8 4 6 13 15 19 18 18 18 15 13 13 13 11 11 14 16 19 23 23 23 23 21 20 21 21 21 21 19 20 20 20 21 19 17 18 18 18 17 16 15 15 15 16 16 16 17 16 17 16 15 16 15 14 13 10 10 13 13 12 12 10 7 10 14 14 14 12 11 10 9 7 7 9 11 12 12 11 10
7 6 7 9 8 10 12 8 5 5 5 1 3 5 6 6 5 4 11 11 14 18 16 18 17 17 18 15 13 11 12 11 10 16 19 21 25 26 25 24 22 21 22 22 20 21 20 19 20 21 21 18 17 18 18 18 17 17 17 16 15 17 17 17 18 17 17 18 15 16 15 14 14 10 10 13 13 12 13 11 8 9 11 13 13 14 13 12 11 9 9 9 10 13 14 14 12
7 8 8 8 7 9 9 7 2 5 5 5 7 7 5 5 5 4 12 14 17 18 16 17 16 14 14 14 14 11 10 10 12 18 20 22 27 27 25 24 22 19 22 23 20 21 21 19 19 20 20 19 18 18 18 18 18 17 17 18 17 18 17 16 18 18 17 17 15 15 15 14 14 13 12 13 14 14 14 13 11 10 11 13 13 14 14 14 13 12 11 10 11 13 16 16 15
5 7 8 7 9 10 9 7 4 5 4 1 6 8 5 6 6 3 13 16 16 18 17 16 15 13 11 11 12 10 9 9 12 18 20 23 26 25 23 22 21 19 21 23 21 21 21 18 17 18 19 18 18 19 19 19 18 17 17 17 18 18 18 17 18 19 16 15 15 15 16 14 14 15 14 13 15 16 17 16 15 13 14 14 14 15 16 16 15 14 13 13 13 15 17 18 17
6 8 9 10 10 10 8 7 5 5 6 7 7 8 5 6 5 2 12 16 16 18 17 15 15 13 11 9 9 10 9 10 15 19 19 20 22 23 21 20 19 19 21 22 21 22 21 19 17 17 17 17 18 19 19 18 17 17 17 17 17 17 18 18 18 18 17 15 14 15 16 16 15 15 16 15 15 17 19 20 19 17 17 17 16 16 17 18 17 15 15 15 16 16 17 19 18
9 9 9 11 11 11 9 7 5 4 4 6 6 6 6 6 6 5 11 15 16 18 17 15 14 12 10 9 9 8 8 13 19 19 16 15 18 21 21 21 21 21 22 22 21 21 21 21 19 16 16 16 18 18 16 16 16 16 16 17 16 15 15 16 17 16 15 14 14 15 17 17 17 17 17 16 16 18 20 21 21 20 19 19 18 17 17 18 18 17 17 17 17 18 19 20 17
9 9 7 8 9 10 10 7 5 4 4 6 5 4 7 7 8 8 14 16 16 19 18 16 14 11 10 9 8 7 9 14 17 16 16 18 20 22 22 23 24 23 22 22 22 22 21 21 17 15 15 16 17 16 14 15 15 15 15 15 15 14 13 14 14 13 13 12 12 13 15 16 17 18 18 19 18 19 20 20 20 20 20 20 19 20 19 18 18 18 18 17 16 17 20 20 17
7 8 6 6 5 6 7 7 7 5 5 8 7 3 7 7 9 9 13 17 17 18 17 15 13 11 9 9 8 8 10 11 12 15 19 22 22 24 24 23 25 25 23 22 22 23 22 19 15 14 15 16 17 15 15 16 15 14 13 13 12 13 13 12 11 11 11 10 10 11 13 14 15 16 17 19 20 20 19 18 18 19 20 20 20 21 21 19 18 18 18 16 14 13 16 18 15
4 6 4 4 3 4 5 7 8 6 6 9 7 4 7 7 10 11 11 16 18 17 16 15 13 11 9 9 9 9 9 9 14 20 23 25 24 25 26 24 24 24 23 23 24 24 22 19 15 15 16 16 16 15 16 16 15 15 14 12 11 11 11 12 11 10 11 10 10 11 12 12 12 13 15 18 20 20 19 17 17 18 19 19 20 22 22 20 19 18 18 17 15 11 12 17 16
3 4 5 4 4 4 4 8 11 8 6 9 9 4 6 7 10 12 9 13 17 17 16 16 15 14 11 9 9 9 7 11 18 22 24 25 24 24 26 25 24 24 23 24 24 24 22 20 17 16 16 16 16 16 17 15 15 16 13 11 10 10 10 10 10 10 10 10 10 10 10 9 9 11 13 16 19 20 20 19 17 17 18 18 20 21 22 21 20 19 18 17 15 8 8 14 16
4 5 4 4 5 4 4 7 12 12 7 8 10 5 5 7 9 14 10 10 15 15 15 17 17 15 13 10 9 10 8 10 13 18 23 24 23 25 26 26 25 24 23 23 24 23 22 21 18 18 18 17 17 17 16 14 14 16 13 11 10 10 10 9 8 10 10 9 9 9 11 9 9 10 12 15 18 19 20 20 18 16 17 18 19 21 22 22 21 19 18 17 14 6 5 9 14
4 4 5 5 5 5 5 7 9 14 9 8 10 6 7 7 8 15 12 10 13 14 16 17 16 14 13 12 11 11 10 9 8 13 22 23 21 24 25 25 24 24 24 23 22 22 21 19 18 17 17 17 17 16 15 13 13 15 14 11 10 9 9 8 8 9 10 9 9 11 11 10 10 11 13 15 17 18 19 19 19 18 17 17 18 20 21 21 20 20 19 18 17 10 2 4 13
5 4 5 5 6 6 8 8 7 14 12 9 9 8 11 11 9 11 10 13 13 12 15 18 16 15 14 14 13 12 12 10 8 14 22 23 21 23 24 24 24 24 23 22 22 21 19 18 17 15 14 15 15 14 13 12 12 14 15 13 11 9 8 8 7 8 10 9 10 12 12 11 12 13 14 16 17 18 18 18 20 19 18 17 18 20 21 20 20 20 20 19 20 17 9 5 10
9 7 6 6 7 7 10 9 9 15 13 10 9 11 14 13 11 8 5 13 14 10 12 15 15 14 13 13 12 12 13 10 12 19 24 23 23 23 23 23 23 22 22 23 22 21 20 19 17 15 14 14 15 14 13 13 13 14 15 14 13 11 9 9 8 8 11 11 12 14 14 14 14 14 15 17 18 19 18 18 19 20 19 18 19 22 22 22 21 20 21 20 18 17 15 11 9
13 9 6 10 9 8 12 9 11 16 11 11 12 11 13 14 12 8 5 11 13 10 10 13 14 12 12 12 12 12 12 11 15 22 23 24 24 23 23 21 20 20 21 22 22 21 21 20 19 18 15 14 15 14 15 16 15 15 16 16 15 13 11 11 10 10 12 14 14 15 15 15 15 16 16 17 18 19 20 19 19 20 21 20 21 22 22 22 21 20 20 19 17 16 16 14 13
14 9 5 7 7 9 14 10 14 18 10 11 13 10 11 13 10 7 6 10 13 11 10 16 17 13 12 13 13 12 10 11 14 16 18 22 22 22 22 21 19 18 19 21 20 20 20 19 19 18 16 15 13 13 14 15 13 14 16 16 14 14 13 13 12 13 13 14 15 16 16 15 15 17 17 17 18 19 20 20 21 21 21 21 21 21 22 21 20 20 19 18 16 17 17 16 16
11 8 6 6 6 8 12 9 17 18 8 8 12 9 9 11 10 8 9 8 9 8 12 20 19 14 13 13 13 12 12 12 12 11 13 18 21 20 20 21 20 18 18 20 18 18 18 17 17 16 15 14 13 12 11 11 10 11 12 14 12 11 13 14 13 13 15 17 17 17 17 17 17 17 17 19 19 19 19 20 21 21 20 21 21 22 22 21 21 20 20 19 16 16 16 17 19
8 6 5 5 8 8 8 6 16 16 7 8 12 8 5 7 7 7 12 10 7 6 14 20 19 16 16 15 14 15 15 14 12 11 10 15 18 18 17 18 19 17 16 18 18 17 18 16 15 15 13 12 12 11 9 7 8 8 8 10 10 8 9 12 12 14 17 18 18 19 19 19 19 19 19 20 20 20 20 21 21 21 21 21 22 23 23 23 23 22 21 20 18 16 15 18 21
8 7 6 7 10 11 9 5 13 12 6 6 9 5 4 5 3 4 9 9 7 7 12 17 15 15 15 13 13 13 15 14 13 12 10 12 15 16 18 18 18 16 15 16 16 16 17 15 14 13 11 10 10 10 7 5 5 6 6 7 7 7 7 10 13 16 17 18 18 19 21 21 21 20 21 21 21 20 20 20 21 21 21 22 22 23 24 24 24 24 23 22 22 20 18 18 18
8 8 10 11 12 14 11 3 9 7 5 4 8 6 5 4 6 8 6 6 9 7 11 16 15 14 14 12 10 9 10 11 11 12 10 11 14 17 18 17 17 15 13 13 12 14 15 14 13 11 10 9 8 7 6 4 4 4 6 7 7 9 10 14 17 18 18 19 18 19 20 21 21 21 22 22 21 20 20 19 19 20 21 22 23 24 24 24 24 24 24 24 24 24 20 18 18
7 7 9 13 15 16 13 4 5 5 5 6 8 8 3 2 4 8 8 9 9 7 12 16 14 13 12 11 10 9 9 9 9 10 9 10 13 15 15 15 16 15 13 12 12 13 13 12 11 10 10 9 7 6 5 5 5 5 6 7 9 10 12 15 17 17 18 19 18 18 18 19 20 21 22 21 20 17 17 17 17 19 20 22 23 25 26 26 25 24 24 24 25 25 22 20 22
6 6 8 12 14 15 13 7 4 6 4 5 5 7 3 1 4 6 10 11 7 10 15 14 12 13 12 11 11 10 9 9 9 9 8 8 11 14 14 15 17 16 15 13 12 11 10 9 9 8 8 7 6 6 6 5 6 6 5 6 8 9 10 11 13 14 15 16 17 17 18 20 20 21 21 21 17 13 13 16 17 18 21 23 24 25 26 27 27 26 25 25 24 24 24 23 24
5 6 9 11 11 11 9 6 4 5 5 3 4 5 4 3 5 6 10 11 9 12 17 15 12 14 13 12 12 11 10 10 9 9 8 9 11 15 17 18 17 17 15 13 11 10 7 6 6 6 5 6 6 6 7 6 6 6 4 4 5 7 9 10 10 9 10 10 12 13 16 18 18 18 17 14 11 11 14 19 21 21 22 23 24 25 25 26 28 28 27 26 25 25 25 25 24
5 8 10 9 8 7 6 6 3 2 5 5 7 6 4 4 3 6 8 9 10 10 13 14 13 13 12 11 12 12 11 10 10 10 9 11 13 15 18 18 17 16 13 11 10 7 5 4 4 4 3 4 5 6 6 5 5 6 5 5 6 7 9 10 10 6 5 6 9 11 13 16 17 16 12 9 12 14 17 21 23 24 23 21 22 24 25 26 26 27 27 26 27 27 26 26 25
6 9 9 7 7 4 3 4 1 3 2 6 9 10 7 4 4 6 7 8 12 11 12 13 14 14 12 10 9 10 10 9 10 10 9 11 13 14 16 15 14 13 10 9 8 6 5 3 2 2 2 3 3 4 4 4 4 5 5 6 7 8 9 10 11 10 10 11 12 13 14 15 16 15 13 13 16 16 15 19 21 23 22 20 22 23 25 26 25 25 26 26 27 27 26 26 26
6 7 7 5 5 1 1 2 3 4 4 6 9 10 9 5 4 3 5 6 12 17 17 17 17 16 12 10 8 8 9 9 10 10 8 9 10 11 12 11 11 11 9 8 7 6 5 3 3 4 4 4 4 3 1 0 1 3 4 5 7 8 9 10 10 11 12 13 14 15 14 15 15 15 15 16 16 15 15 19 21 23 22 21 23 25 26 26 25 24 25 26 27 26 25 26 26
6 5 5 4 3 2 3 3 2 4 4 7 11 10 7 5 1 4 7 4 12 17 18 19 20 18 14 12 9 7 7 8 8 8 7 6 6 8 10 11 12 12 10 9 8 8 8 8 8 10 11 10 10 8 7 7 6 5 3 3 3 4 5 6 7 9 10 12 13 14 15 15 14 14 15 16 15 16 18 20 22 23 22 20 23 26 26 24 24 24 24 24 25 24 24 25 26
7 7 5 5 4 3 4 4 3 3 3 6 12 10 4 2 3 9 6 7 13 13 15 17 18 18 16 14 11 8 7 8 7 7 6 5 6 9 11 12 14 14 13 12 12 12 11 11 12 12 13 12 12 11 10 10 10 9 8 7 6 6 6 7 8 8 9 10 12 14 15 14 13 13 15 16 16 18 20 21 22 22 22 21 22 26 26 24 23 25 24 22 24 25 24 25 26
7 7 5 5 4 4 4 3 4 4 3 4 8 6 1 1 2 10 8 11 14 14 14 15 15 15 15 14 12 10 9 8 7 7 7 6 8 11 12 14 16 16 14 13 14 13 11 12 13 13 14 13 12 13 12 12 12 10 10 10 8 8 9 9 10 11 11 12 12 14 14 14 13 13 16 17 17 20 21 21 22 22 24 23 22 24 27 25 23 24 24 22 22 24 24 24 26
5 5 6 5 4 4 4 4 5 6 2 2 2 2 2 2 2 7 9 11 14 16 15 16 15 13 13 13 11 10 9 8 8 8 7 7 10 12 13 15 15 14 13 12 12 12 11 11 12 13 13 13 12 12 13 13 13 11 11 11 11 11 11 12 13 13 13 12 11 12 12 12 13 14 16 17 18 20 20 21 22 21 23 23 20 22 26 24 20 22 24 22 22 23 24 25 25
4 5 7 7 6 4 4 4 4 5 2 3 2 4 2 3 3 7 7 10 11 12 13 15 14 13 13 11 9 9 8 8 7 7 6 7 9 12 13 13 13 12 11 11 11 11 11 10 11 11 11 12 12 11 12 13 12 12 13 12 12 13 13 14 14 14 14 13 12 11 12 13 14 15 16 17 18 19 20 21 21 19 19 19 17 18 21 20 18 21 23 22 22 21 21 23 24
5 5 6 4 5 3 3 3 4 4 2 3 3 8 6 4 2 3 4 8 8 9 12 13 13 13 12 10 10 10 9 8 7 6 7 8 8 10 12 12 11 10 10 9 8 7 7 7 7 8 10 11 11 11 12 13 13 13 14 14 14 14 14 15 15 15 15 15 15 13 13 14 15 16 17 17 16 17 19 21 20 16 15 16 16 15 16 17 18 20 21 22 22 21 21 22 23
4 4 5 5 4 5 3 3 5 5 4 1 2 8 7 4 5 7 8 9 9 9 11 12 13 12 11 10 11 11 9 8 7 6 6 7 7 10 13 12 9 7 7 8 7 6 7 7 7 7 9 11 10 11 14 14 14 15 15 15 15 16 15 15 15 16 16 16 16 16 15 16 16 17 18 17 16 16 17 19 17 14 13 14 16 16 15 16 19 20 21 21 20 20 22 22 22
5 4 4 6 4 4 4 4 5 5 4 3 2 3 2 2 6 13 15 15 14 13 12 12 12 11 10 10 10 9 9 7 6 6 5 5 8 11 13 11 9 10 10 9 9 9 9 8 10 11 12 13 12 13 15 15 15 16 16 16 17 16 16 15 15 15 16 16 17 18 16 16 17 18 18 17 16 16 17 17 17 16 15 14 14 15 17 16 16 17 20 21 17 16 22 24 22
6 5 4 7 5 4 4 3 3 5 4 4 3 2 3 1 4 11 13 13 13 12 12 11 11 11 10 9 9 8 8 7 7 6 5 6 9 12 14 14 14 14 13 11 11 11 10 11 14 15 15 14 14 15 15 16 15 16 17 18 17 16 15 14 14 15 16 16 18 18 16 15 17 17 16 16 16 16 16 17 17 18 18 17 14 14 15 15 14 14 18 20 17 16 20 23 22
7 5 4 7 6 5 5 4 2 4 4 5 5 3 4 3 2 8 10 11 11 12 13 12 10 11 10 9 9 8 8 7 6 6 6 7 10 13 13 12 12 14 15 14 13 13 14 15 16 16 15 15 14 14 14 14 15 16 17 17 16 16 15 15 16 17 18 18 18 18 17 17 18 18 16 15 15 16 15 16 18 18 18 17 15 12 11 12 14 16 18 19 18 19 19 19 20
Wind_Direction
271 279 303 321 312 322 312 242 127 278 179 242 242 249 253 239 247 255 263 270 280 324 350 63 66 76 89 102 106 81 52 48 75 116 120 124 117 120 127 127 130 134 136 136 135 138 144 150 154 156 157 157 157 153 151 152 151 150 147 135 119 111 108 111 115 123 128 125 117 111 105 99 98 96 95 96 98 100 101 101 102 101 99 97 95 93 93 94 93 91 91 94 96 95 99 109 111
259 271 296 309 298 302 296 197 140 276 221 256 241 226 246 247 250 248 250 267 256 133 56 64 78 89 98 103 98 74 55 45 75 88 104 117 114 117 124 127 130 132 134 134 134 137 143 149 154 156 159 159 157 154 154 155 155 154 146 131 120 113 112 116 120 127 129 123 117 111 106 100 98 98 98 99 101 103 103 104 103 101 99 96 93 92 94 95 90 85 86 88 94 98 103 113 116
263 273 289 302 284 237 292 303 190 241 232 248 252 236 239 251 260 258 236 150 106 98 76 70 76 88 90 76 56 70 84 65 85 91 111 117 112 121 124 123 124 126 130 131 135 139 141 146 154 157 159 160 157 156 156 157 156 153 142 129 123 117 118 119 123 130 128 122 117 113 109 102 100 101 102 102 104 106 106 105 103 102 99 95 92 92 93 90 84 81 82 83 85 91 104 120 122
273 273 281 298 293 201 282 272 195 212 233 242 257 252 246 252 259 5 64 126 143 28 84 78 65 64 79 84 83 84 105 98 97 101 106 116 122 128 125 121 118 119 125 129 135 138 140 146 154 157 158 158 156 157 156 157 156 150 141 132 128 122 123 121 126 132 126 121 119 118 113 106 105 105 105 106 107 108 108 107 105 103 100 96 94 92 88 80 75 76 78 82 80 80 99 120 123
282 279 268 257 263 227 198 227 208 207 230 234 250 259 257 239 136 104 116 128 84 22 87 98 87 60 67 80 94 96 117 111 103 104 99 117 128 127 123 120 117 120 127 130 135 138 143 150 156 156 156 157 155 156 156 157 155 150 143 137 133 129 126 120 129 132 124 123 122 121 116 111 112 109 108 109 111 111 111 110 108 105 100 95 92 91 87 81 77 74 74 81 79 80 96 113 120
288 294 268 229 251 294 240 244 229 230 234 228 247 261 260 260 180 134 146 107 51 31 71 91 108 95 73 63 45 73 128 117 106 111 111 123 129 126 122 119 119 126 131 131 134 139 145 154 156 156 157 156 155 156 157 157 157 154 147 143 137 132 126 121 131 133 125 126 124 121 118 115 117 113 111 115 116 113 113 112 109 105 99 93 90 90 87 84 81 74 74 79 81 92 105 113 121
273 302 277 198 262 281 225 252 244 252 243 231 239 254 266 265 231 117 102 88 18 35 83 98 109 95 79 83 47 47 96 114 116 120 122 125 126 123 121 122 125 130 133 131 136 143 147 154 155 156 157 155 156 157 158 159 160 158 152 148 140 132 126 125 132 133 129 128 124 121 121 122 123 117 116 119 118 116 116 113 110 106 101 100 96 93 87 84 84 80 74 78 90 107 116 121 126
251 258 281 161 259 238 206 255 254 256 257 252 249 256 264 197 202 50 66 76 9 56 105 109 96 83 64 85 83 59 82 105 114 121 124 124 124 122 123 126 127 130 133 133 139 145 147 155 155 156 156 155 158 158 161 161 164 161 156 149 137 129 126 127 131 133 131 129 126 125 125 129 129 122 120 122 120 119 116 112 107 103 100 101 96 88 83 83 84 82 72 80 103 119 123 128 131
243 224 261 226 228 250 234 243 247 249 257 262 265 264 245 181 152 92 42 24 104 146 125 114 93 93 91 85 94 84 86 106 114 119 124 124 126 127 128 128 128 130 135 137 142 147 149 156 156 156 157 157 160 160 163 163 166 161 154 145 132 128 127 129 132 133 132 131 131 131 132 135 133 126 125 124 121 119 116 113 105 99 96 95 90 83 82 82 77 77 71 82 112 129 130 133 134
229 208 223 239 219 251 251 242 244 244 247 251 255 252 235 193 118 86 42 7 31 111 102 98 95 108 111 94 97 104 107 117 117 116 121 124 125 128 129 130 134 136 139 138 143 149 150 156 157 157 158 160 162 162 165 164 161 152 146 138 130 130 133 137 137 135 134 136 138 138 139 138 135 130 129 126 123 121 120 117 110 106 102 97 90 88 91 81 72 73 71 81 115 137 137 137 135
234 225 189 242 252 245 244 248 250 249 248 250 251 234 184 142 108 86 94 287 307 110 110 96 100 111 102 96 104 112 119 123 118 115 121 122 119 124 128 133 141 143 142 141 147 152 151 156 157 158 159 159 161 162 163 157 151 144 138 134 133 136 141 144 141 138 139 139 142 144 143 140 138 135 132 129 128 127 123 120 116 115 110 104 95 94 96 81 71 69 68 80 114 141 143 139 137
238 254 172 215 235 235 245 250 254 262 259 252 253 218 155 123 110 92 126 198 228 168 144 112 120 113 97 103 112 113 118 123 120 117 122 121 116 120 127 133 141 145 145 147 151 154 154 158 156 155 156 154 156 156 154 149 147 142 136 137 141 143 148 149 145 143 143 142 144 146 145 142 140 137 137 133 134 136 132 129 121 121 121 115 108 104 101 83 71 65 66 81 115 144 147 144 139
218 246 190 219 224 230 251 256 263 274 271 255 244 180 138 103 106 107 123 221 246 200 144 118 128 103 97 116 106 112 117 126 124 121 122 117 116 119 125 130 135 142 145 149 155 157 157 157 153 151 151 149 148 148 149 150 149 143 141 146 148 149 153 152 148 147 147 145 146 145 144 146 143 139 140 140 143 148 145 138 127 132 137 128 121 114 109 92 74 67 66 82 119 147 151 148 137
211 233 204 240 248 237 248 257 269 274 276 272 253 117 115 95 105 94 110 343 8 84 90 103 121 99 106 128 109 124 130 131 127 124 121 117 119 120 122 125 129 138 144 152 158 157 155 153 150 147 149 148 147 148 153 156 152 148 152 153 152 152 153 152 151 152 151 150 149 145 145 150 152 149 150 151 157 161 154 144 139 146 151 144 135 126 119 105 85 72 67 82 119 150 154 147 134
214 237 223 255 264 261 261 256 263 267 276 289 352 99 101 95 109 93 220 91 44 76 90 89 106 104 144 156 139 160 144 133 126 124 120 117 119 117 118 121 125 136 147 156 157 154 150 148 148 147 151 153 153 156 158 159 155 153 158 156 151 150 151 154 156 156 156 159 159 152 152 155 160 164 163 165 169 170 165 156 156 162 163 158 146 137 129 117 101 83 74 83 115 152 156 146 136
214 229 244 263 258 267 260 257 276 270 261 271 331 75 93 87 127 119 211 108 78 45 76 68 3 111 159 152 139 148 141 131 125 124 119 116 116 115 117 121 127 137 150 154 149 147 147 147 147 147 152 158 162 162 159 158 156 154 154 149 146 148 151 157 162 163 161 164 168 165 159 157 164 171 172 178 183 185 183 171 172 177 175 169 157 149 139 129 119 97 85 89 111 149 156 148 140
226 215 237 263 258 260 249 249 277 261 234 271 324 46 109 233 137 119 80 91 95 68 63 57 33 79 134 131 133 138 136 128 126 124 119 118 116 115 118 123 131 139 148 148 144 145 148 149 145 145 150 159 164 160 157 155 155 154 147 140 143 151 155 160 167 170 168 167 171 173 167 166 172 176 182 189 200 219 220 195 185 188 184 179 171 159 146 137 132 115 100 99 111 139 149 144 134
235 197 218 247 243 247 249 247 260 285 59 302 302 153 152 176 162 149 91 89 96 85 74 74 62 65 100 118 129 132 132 128 128 125 124 125 121 120 122 128 139 147 149 147 149 150 152 150 143 146 151 156 156 152 152 152 155 156 150 144 143 151 159 165 175 180 182 180 178 178 175 178 180 179 194 198 201 220 231 219 200 194 192 188 182 169 155 143 140 134 116 108 118 137 143 138 127
224 196 212 228 237 255 270 273 281 15 27 321 340 89 142 203 176 160 117 112 107 95 88 91 86 84 98 116 126 128 130 129 131 130 131 133 130 130 128 138 152 155 150 145 149 154 155 149 145 153 157 157 154 148 149 151 155 153 150 149 144 149 159 165 178 186 191 192 188 182 175 173 173 175 192 199 202 205 221 229 212 199 198 195 190 179 166 155 151 151 138 126 128 143 145 135 125
220 204 232 234 237 260 272 275 283 34 50 358 343 356 352 256 166 152 145 132 120 120 125 112 111 118 117 122 126 127 131 133 137 135 136 137 135 134 136 154 164 159 151 145 147 153 154 149 152 160 160 161 159 152 149 151 152 148 146 147 146 152 159 162 173 183 187 190 187 178 172 168 174 188 195 193 204 208 217 230 220 205 202 202 198 189 179 172 169 166 161 150 142 151 152 142 130
212 197 233 252 247 261 276 285 291 64 70 33 341 344 340 317 65 111 159 138 130 145 147 136 135 136 134 136 133 132 134 140 145 140 141 139 132 134 145 164 169 160 156 153 150 151 150 153 161 164 164 164 160 155 150 151 150 147 148 148 152 159 163 167 176 186 189 190 183 176 175 174 179 192 199 195 205 215 220 226 227 213 205 206 206 201 192 188 186 181 182 176 163 160 161 157 151
227 219 228 247 254 272 285 288 291 98 94 71 349 353 325 312 357 25 40 150 173 153 139 134 136 136 136 140 138 139 141 148 151 143 142 134 128 135 148 164 169 159 159 159 154 152 150 157 167 167 169 165 157 158 155 154 154 151 154 156 161 167 172 177 186 195 195 189 185 183 185 187 184 186 196 201 208 218 224 228 235 220 208 207 210 213 205 200 199 195 198 197 191 184 181 180 186
222 242 234 239 239 253 269 284 307 39 103 124 4 341 329 343 337 22 50 65 132 126 126 126 130 132 133 135 135 140 143 150 150 142 142 130 127 139 149 162 168 161 162 162 158 158 151 158 170 170 171 165 154 160 159 155 158 159 162 165 168 174 181 187 194 200 201 194 189 191 192 194 193 189 192 198 207 217 225 225 226 222 215 212 216 222 218 211 208 208 216 213 212 214 211 211 221
221 244 252 249 237 241 253 278 339 50 72 16 342 337 328 333 323 47 78 85 99 110 117 119 124 129 132 133 136 140 140 147 142 138 141 129 128 143 152 161 165 159 161 161 161 161 154 157 169 172 175 169 158 162 161 159 164 165 166 174 177 181 188 195 200 203 207 206 200 198 199 199 201 204 196 195 203 212 224 226 213 205 210 214 222 228 227 221 215 215 225 231 234 239 236 239 257
233 234 248 262 263 261 258 262 271 85 59 351 322 315 309 286 296 58 102 107 105 111 113 115 119 123 129 132 134 138 137 135 124 126 132 124 126 141 152 158 160 158 159 159 159 159 154 156 168 177 179 172 164 166 166 165 171 172 172 181 186 190 195 200 206 208 211 213 210 207 208 208 210 216 212 206 208 210 219 228 220 203 198 206 218 228 234 228 221 217 221 235 247 257 255 254 268
246 235 239 253 263 268 270 260 213 127 109 178 276 280 293 290 298 63 119 124 119 119 118 122 124 124 129 130 134 137 130 124 114 117 123 122 123 133 146 154 158 159 158 157 156 155 155 159 173 182 181 176 172 173 173 173 177 181 183 188 193 198 201 206 212 215 215 217 217 218 221 222 220 223 224 222 221 217 217 223 223 215 206 208 217 225 232 228 223 220 219 227 238 256 264 264 266
252 248 239 240 253 264 269 268 228 151 149 175 224 248 251 268 276 130 131 132 127 123 122 126 125 128 132 128 133 129 123 121 115 117 120 121 123 129 141 149 152 154 153 154 156 157 159 165 176 183 182 179 173 174 177 178 181 185 191 195 198 202 205 210 214 217 219 221 225 227 228 231 232 232 233 233 233 230 225 223 224 222 218 217 221 223 224 223 221 222 223 223 230 244 257 265 265
258 258 251 238 240 252 257 264 241 171 156 182 208 239 235 241 246 196 145 138 135 128 127 130 128 130 131 124 126 122 119 121 118 120 123 123 128 133 141 148 148 150 152 156 160 158 160 168 177 184 185 175 167 173 171 170 179 182 189 198 201 205 211 218 218 220 224 228 234 235 235 236 239 242 240 240 243 240 236 232 229 229 228 225 226 227 222 221 219 223 226 223 230 239 251 265 260
267 265 271 255 239 241 242 246 237 188 176 184 183 259 251 231 235 198 148 146 143 134 133 134 133 135 132 126 123 118 119 122 121 125 127 127 134 138 144 151 150 151 154 159 162 156 158 170 179 185 186 173 166 171 163 162 172 177 189 198 203 211 220 225 222 227 233 234 240 242 242 238 240 245 245 246 247 246 244 241 236 233 233 231 231 233 231 228 224 227 230 226 236 245 255 262 252
265 264 267 266 258 246 227 229 238 206 177 178 166 234 256 238 231 202 150 152 147 137 138 134 133 138 133 129 121 120 125 128 127 127 124 124 135 142 146 153 154 154 157 161 160 156 160 172 178 179 179 173 169 170 163 165 170 175 189 195 202 218 229 236 232 233 238 238 242 249 252 248 246 250 250 249 247 247 246 244 242 235 234 233 231 234 236 237 233 231 232 233 245 257 261 257 250
256 271 266 235 227 249 218 206 226 217 178 178 174 207 249 246 229 212 164 159 153 139 140 134 135 137 130 131 127 128 134 129 126 125 124 127 137 145 149 154 156 156 158 159 158 157 163 169 172 174 173 171 172 170 166 168 172 178 190 194 205 223 234 246 244 238 242 243 241 244 251 252 251 253 251 249 248 247 246 246 245 238 235 235 233 233 234 239 239 235 234 238 248 262 262 250 251
229 238 263 233 202 250 245 207 207 210 191 185 186 203 244 246 231 219 183 163 155 141 143 139 139 141 138 140 133 129 128 120 121 124 128 133 139 147 152 155 155 155 154 156 157 159 164 167 173 175 172 171 168 167 169 172 175 179 189 194 206 226 235 246 244 239 245 250 252 243 236 236 240 249 246 242 244 246 244 245 247 241 236 234 233 232 231 237 240 236 233 236 245 264 267 247 246
237 199 224 235 207 224 262 229 203 197 198 196 194 192 234 245 230 215 195 167 155 142 143 141 142 147 145 144 137 128 121 116 118 124 130 135 138 144 150 154 153 152 151 153 157 160 164 169 177 176 174 173 165 165 173 175 172 173 184 198 207 223 233 238 237 239 246 252 250 226 214 220 229 241 241 238 243 244 242 241 241 239 235 230 229 230 232 236 238 235 232 231 237 257 297 255 237
253 210 206 236 223 199 223 240 204 189 195 205 194 191 232 243 220 209 197 170 160 147 146 146 146 150 146 144 139 131 129 127 125 127 131 134 136 137 143 149 151 150 150 153 154 157 162 168 175 173 173 173 167 169 175 173 169 169 179 199 214 224 229 232 232 241 249 244 225 211 215 226 229 233 234 234 241 245 244 242 238 232 227 225 226 229 232 235 237 236 231 227 227 228 268 261 230
233 212 192 233 245 223 220 229 189 179 194 210 192 200 236 247 231 218 194 168 168 156 150 153 153 150 148 143 138 137 135 134 130 126 128 132 133 131 134 139 145 150 152 152 152 155 159 163 168 167 167 170 170 171 167 162 164 167 175 190 213 226 226 229 230 232 238 231 215 216 226 233 232 230 227 226 233 240 243 243 240 231 223 222 226 231 231 232 234 233 230 228 227 230 233 238 232
231 217 187 206 234 245 238 230 181 172 189 211 197 201 225 237 243 252 201 163 167 167 150 151 155 149 147 142 138 140 136 134 131 126 126 130 131 132 134 135 138 145 150 151 153 156 158 161 166 164 161 164 165 165 162 161 163 165 172 184 201 217 225 230 232 221 221 225 222 221 226 229 229 227 224 224 226 232 238 240 240 236 230 227 228 232 232 231 231 229 231 231 232 240 241 235 236
241 232 201 203 216 238 250 242 181 170 180 209 212 207 213 227 239 254 218 161 162 177 153 140 151 148 143 142 138 135 130 130 127 126 130 134 136 138 140 141 141 144 149 152 156 157 158 159 163 162 160 159 159 161 164 169 172 171 178 185 192 205 218 226 231 225 220 224 226 226 228 226 225 226 225 225 225 228 233 235 233 231 231 228 229 233 234 234 232 230 233 235 233 230 229 230 225
244 249 244 223 218 224 243 237 178 173 177 201 212 209 209 221 230 231 209 169 166 183 155 140 152 151 143 140 134 129 124 125 123 125 134 136 138 141 141 144 148 152 154 157 159 158 157 157 159 159 158 161 161 164 168 173 177 178 185 191 195 204 213 220 228 232 229 228 228 230 231 228 226 227 227 227 228 227 228 231 227 224 225 226 228 233 236 235 234 233 232 233 230 219 220 227 215
244 253 263 255 253 234 246 230 177 176 176 191 204 206 211 220 226 222 205 182 177 179 144 143 151 147 144 140 135 134 129 129 127 129 133 133 137 141 143 147 153 160 161 160 162 158 156 157 155 155 157 163 165 164 170 176 177 176 179 183 187 200 209 217 229 236 237 234 231 231 232 232 230 229 228 227 229 229 228 230 228 225 226 228 229 231 233 233 232 233 230 228 224 216 220 225 216
244 243 246 256 261 251 262 223 173 175 173 175 191 202 216 218 235 223 193 180 183 165 134 142 150 147 150 148 143 144 139 136 133 133 131 127 132 138 143 149 154 161 160 159 162 158 156 155 152 153 155 160 164 163 162 170 185 186 177 178 183 188 196 207 223 233 232 231 230 229 230 235 235 231 229 228 230 233 231 231 231 230 229 231 233 233 234 234 232 231 229 227 221 211 207 212 215
243 235 231 248 257 256 261 204 161 173 187 166 171 194 261 223 201 197 185 163 158 154 125 133 145 142 143 142 142 143 139 139 137 136 135 128 130 132 137 145 148 152 152 153 157 155 154 152 150 153 150 149 158 168 164 146 161 182 186 190 196 208 212 209 220 228 226 227 231 230 230 234 236 234 233 232 233 235 235 235 235 235 235 234 236 237 238 239 237 233 229 226 222 217 209 205 212
243 236 228 240 255 261 264 193 136 159 213 197 156 168 270 250 168 174 179 138 147 150 123 132 140 136 135 132 130 126 121 126 128 131 134 130 130 131 136 141 140 139 143 145 146 146 147 145 144 146 145 144 145 161 180 161 139 166 188 194 199 215 223 217 221 227 227 229 235 237 235 235 236 237 237 235 236 238 238 240 241 243 243 241 241 242 243 241 239 237 232 228 225 224 217 205 208
234 226 218 238 251 258 272 268 145 158 215 217 156 151 248 284 175 175 152 140 151 126 113 132 137 132 131 125 120 116 109 110 113 121 127 128 130 132 135 135 130 129 132 135 135 136 140 141 143 143 141 144 139 147 179 181 173 182 193 205 215 223 229 231 234 236 236 236 240 243 242 240 240 240 240 237 236 239 243 250 255 255 253 252 250 247 246 244 241 239 235 232 229 225 217 207 210
225 218 212 236 246 249 270 282 198 171 185 220 164 128 135 256 239 191 147 145 144 106 112 129 132 127 121 113 113 109 109 111 113 119 117 116 122 123 121 118 121 125 126 129 130 131 135 139 146 146 141 148 153 160 174 176 182 196 209 224 235 243 248 255 256 248 243 242 241 243 244 245 245 245 246 241 235 238 247 254 256 254 253 254 254 253 250 248 245 244 240 236 233 228 219 211 210
216 221 229 239 242 244 260 266 224 171 142 217 218 126 117 259 253 195 156 152 146 124 126 131 126 120 113 108 109 101 100 104 105 109 101 96 102 108 112 113 118 123 125 130 133 130 128 130 138 140 144 160 168 173 181 179 185 202 225 243 255 270 274 282 286 262 245 244 244 245 247 248 248 250 255 253 247 246 244 245 246 244 243 247 251 254 254 252 248 245 242 239 235 228 222 216 210
199 218 244 254 246 242 246 242 242 139 139 201 211 158 151 257 240 187 172 162 157 134 125 128 118 110 106 107 111 106 101 99 98 98 91 91 96 103 111 115 121 125 127 131 131 130 133 137 145 149 164 183 180 182 189 188 192 203 220 236 252 276 284 290 303 297 269 267 262 259 259 259 260 264 273 277 261 251 244 245 247 246 245 247 252 256 256 256 252 247 244 241 236 228 221 219 216
181 209 244 271 261 239 230 240 90 73 237 221 199 176 171 233 249 190 182 176 160 130 118 127 117 108 107 102 102 103 104 106 104 99 93 95 98 103 110 115 120 122 122 120 117 122 130 140 168 183 206 200 174 181 197 210 217 221 233 242 249 266 282 290 301 309 307 304 295 287 282 279 280 283 288 284 270 262 259 259 259 257 254 250 250 254 255 253 254 252 248 243 238 231 225 222 222
182 198 224 250 273 270 206 285 79 109 257 239 200 185 176 211 262 234 234 207 155 133 132 137 127 120 117 105 97 96 103 107 105 105 106 104 104 106 108 108 106 106 107 109 113 115 104 86 64 59 64 67 68 76 85 93 262 259 255 258 264 273 288 297 304 311 312 312 308 305 300 293 293 293 293 292 286 278 272 269 268 265 260 250 245 247 250 251 253 253 248 243 240 236 228 223 219
191 193 195 191 241 229 194 236 154 162 239 225 192 185 190 192 222 305 285 208 145 138 141 140 135 130 124 117 112 101 100 104 104 109 111 109 110 109 104 97 92 91 90 90 93 93 82 69 64 59 54 52 50 47 46 41 33 20 356 337 330 325 326 324 326 327 322 319 316 315 313 308 306 300 293 295 294 283 273 267 265 263 262 257 251 248 246 248 250 250 247 242 240 236 229 222 217
200 199 178 163 184 197 195 207 188 180 253 222 183 179 214 165 36 338 342 110 123 127 128 128 129 127 123 121 117 107 100 98 95 93 91 91 94 96 97 92 87 82 77 75 75 77 75 65 60 55 47 42 43 42 40 37 34 30 25 24 20 10 0 347 343 341 334 328 321 316 315 314 313 305 297 299 297 291 286 279 271 266 266 264 259 255 250 244 241 244 244 241 240 239 233 227 222
204 204 177 167 175 174 185 181 164 179 248 246 185 175 291 81 357 339 15 82 99 102 105 107 108 111 114 113 109 105 99 95 94 89 86 86 86 87 87 83 81 78 73 71 68 67 68 60 54 51 43 37 38 38 37 33 26 23 23 21 15 4 358 351 344 340 335 328 319 315 315 316 315 310 307 308 304 299 298 293 281 270 267 264 259 260 260 250 238 236 237 235 237 238 233 228 224
198 194 188 207 194 151 163 180 160 156 192 272 183 129 26 92 50 4 35 70 87 98 101 102 103 103 106 106 106 106 104 103 102 97 93 86 83 82 80 78 78 77 74 71 68 65 63 56 49 45 37 31 30 31 33 30 23 22 23 18 15 11 4 356 350 346 342 336 329 326 326 325 322 318 314 312 308 304 301 297 287 276 268 263 259 262 263 256 242 235 234 230 230 235 234 229 225
187 195 200 218 210 144 118 185 170 120 139 246 140 99 79 120 53 10 40 73 84 96 100 102 105 105 105 106 107 105 102 101 97 100 101 85 79 81 83 87 87 83 77 70 67 62 56 51 47 43 37 33 30 28 29 29 24 21 18 14 14 14 7 2 360 358 355 353 350 345 336 327 321 320 320 317 312 307 301 297 294 287 274 264 266 270 264 257 246 237 235 231 227 230 232 227 223
163 195 199 209 236 210 116 146 171 127 157 257 122 130 157 162 124 354 59 91 93 98 102 104 105 106 108 108 108 106 102 102 100 102 100 90 93 96 92 89 85 82 80 75 71 62 56 61 59 50 46 44 38 32 29 28 27 23 19 18 17 14 9 6 2 357 354 352 352 348 339 329 322 323 327 325 318 308 298 297 296 291 278 264 261 262 260 256 247 238 236 234 227 223 223 221 220
181 201 193 168 210 233 191 155 170 164 182 276 99 144 168 174 160 160 151 141 132 120 114 112 110 112 113 110 111 112 113 115 112 107 101 102 113 106 94 88 86 100 109 101 96 93 88 84 78 65 55 49 42 36 30 28 28 24 22 23 22 18 14 10 4 357 355 355 352 347 340 332 328 329 330 328 322 308 295 293 291 283 273 261 251 244 246 248 240 231 229 230 224 220 223 223 220
230 249 220 185 181 192 196 186 164 160 175 181 130 158 207 214 171 171 168 160 153 143 132 122 117 117 116 115 118 118 120 120 113 109 106 113 122 118 119 134 151 152 137 118 101 91 86 78 73 68 59 52 47 41 35 30 28 25 24 24 22 19 14 8 3 357 357 356 349 345 342 334 329 329 330 328 323 311 301 297 291 281 272 264 253 243 240 244 242 230 225 227 224 220 225 225 221
223 236 215 204 202 179 197 220 165 146 161 164 152 209 254 267 177 181 171 156 151 143 132 126 122 120 117 116 119 118 117 115 115 122 125 133 140 144 153 165 171 160 137 121 110 95 83 74 69 62 53 48 47 43 36 30 28 27 25 24 20 17 13 7 3 0 360 357 350 349 347 338 331 330 331 330 327 319 313 310 302 290 279 272 266 254 241 241 244 230 221 225 221 213 221 222 220
207 219 209 197 192 173 192 243 203 143 151 163 150 182 244 295 238 186 166 146 143 136 128 126 123 121 116 112 114 114 113 117 127 136 141 152 155 154 155 157 159 154 139 124 112 97 83 73 66 59 51 49 48 45 38 31 32 30 25 24 21 17 15 11 6 4 2 359 355 353 350 343 336 332 332 332 330 325 321 321 314 300 286 279 273 261 244 235 230 217 212 214 204 200 209 213 217